Laramie, WY

9:19 AM MST on January 16, 2017 (GMT -0700)
Laramie Regional

Weather History for KLAR - May, 2013

Change the Weather History Date:

Sunday, May 5, 2013

  Actual Average Record
Temperature  
Mean Temperature 42 °F 44 °F  
Max Temperature 53 °F 58 °F 80 °F (2000)
Min Temperature 30 °F 30 °F 18 °F (2011)
Degree Days  
Heating Degree Days 23 21  
Month to date heating degree days 159 108  
Since 1 July heating degree days 8099 8157  
Cooling Degree Days 0 0  
Month to date cooling degree days 0 0  
Year to date cooling degree days 0 0  
Moisture  
Dew Point 22 °F    
Average Humidity 46    
Maximum Humidity 59    
Minimum Humidity 33    
Precipitation  
Precipitation T in 0.05 in 0.60 in (1949)
Month to date precipitation 0.05 0.23  
Year to date precipitation 1.93 2.49  
Sea Level Pressure  
Sea Level Pressure 30.04 in    
Wind  
Wind Speed 19 mph (SSE)    
Max Wind Speed 33 mph    
Max Gust Speed 39 mph    
Visibility 10 miles    
Events      
T = Trace of Precipitation, MM = Missing Value Source: NWS Daily Summary

Daily Weather History Graph

Daily Weather History Graph

Search for Another Location

Airport or City:

Trip Planner

Search our weather history database for the weather conditions in past years. The results will help you decide how hot, cold, wet, or windy it might be!

Date:

Astronomy

May. 05, 2013 Rise Set
Actual Time 5:54 AM MDT 8:04 PM MDT
Civil Twilight 5:24 AM MDT 8:35 PM MDT
Nautical Twilight 4:46 AM MDT 9:12 PM MDT
Astronomical Twilight 4:05 AM MDT 9:54 PM MDT
Moon 3:29 AM MDT (5/5) 4:04 PM MDT (5/5)
Length of Visible Light 15h 10m
Length of Day
14h 09m
Waning Crescent, 17% of the Moon is Illuminated
May 5
Waning Crescent
May 9
New
May 17
First Quarter
May 24
Full
May 31
Last Quarter

Hourly Weather History & Observations

Time (MDT) Temp. Windchill Dew Point Humidity Pressure Visibility Wind Dir Wind Speed Gust Speed Precip Events Conditions
12:53 AM 34.0 °F 24.2 °F 19.9 °F 56% 30.09 in - SE 15.0 mph - N/A   Scattered Clouds
1:53 AM 35.1 °F 24.1 °F 19.0 °F 52% 30.05 in - SE 19.6 mph - N/A   Overcast
2:53 AM 34.0 °F 23.4 °F 18.0 °F 52% 30.06 in - SE 17.3 mph 24.2 mph N/A   Overcast
3:53 AM 32.0 °F 21.2 °F 16.0 °F 52% 30.06 in - SE 16.1 mph - N/A   Clear
4:53 AM 30.9 °F 19.4 °F 14.0 °F 50% 30.06 in - SE 17.3 mph - N/A   Clear
5:53 AM 30.9 °F 20.7 °F 15.1 °F 52% 30.08 in - SE 13.8 mph - N/A   Clear
6:53 AM 34.0 °F 23.4 °F 15.1 °F 46% 30.08 in - SSE 17.3 mph - N/A   Partly Cloudy
7:53 AM 36.0 °F 24.7 °F 15.1 °F 43% 30.09 in - SSE 21.9 mph - N/A   Clear
8:53 AM 39.9 °F 30.8 °F 17.1 °F 40% 30.08 in - SSE 18.4 mph - N/A   Clear
9:53 AM 44.1 °F 33.7 °F 18.0 °F 35% 30.03 in - SSE 32.2 mph 36.8 mph N/A   Clear
10:53 AM 43.0 °F 32.2 °F 18.0 °F 37% 30.04 in - SSE 32.2 mph 38.0 mph N/A   Scattered Clouds
12:53 PM 48.9 °F - 24.1 °F 38% 30.01 in - SSE 26.5 mph 34.5 mph N/A   Scattered Clouds
1:53 PM 48.9 °F - 24.1 °F 38% 29.98 in - SSE 26.5 mph 31.1 mph N/A   Mostly Cloudy
2:53 PM 52.0 °F - 25.0 °F 35% 29.97 in 10.0 mi SE 24.2 mph 31.1 mph N/A   Clear
3:53 PM 48.9 °F - 26.1 °F 41% 29.99 in 10.0 mi SSE 24.2 mph - N/A   Clear
4:53 PM 46.0 °F 38.5 °F 27.0 °F 47% 30.04 in 10.0 mi SSE 19.6 mph - N/A   Overcast
5:53 PM 44.1 °F 38.6 °F 30.9 °F 60% 30.05 in 10.0 mi SE 10.4 mph - 0.00 in   Overcast
6:53 PM 45.0 °F 39.3 °F 30.0 °F 56% 30.01 in 10.0 mi SSE 11.5 mph - N/A   Overcast
7:53 PM 43.0 °F 35.7 °F 28.9 °F 58% 30.02 in 10.0 mi SSE 15.0 mph - N/A   Overcast
8:53 PM 41.0 °F 32.8 °F 26.1 °F 55% 30.03 in - SSE 16.1 mph - N/A   Clear
9:53 PM 39.0 °F 30.6 °F 27.0 °F 62% 30.01 in 10.0 mi SSE 15.0 mph - N/A   Clear
10:53 PM 37.9 °F 30.9 °F 25.0 °F 60% 30.01 in - SSE 10.4 mph - N/A   Clear
11:53 PM 37.0 °F 28.1 °F 25.0 °F 62% 30.00 in 10.0 mi SE 15.0 mph - N/A   Clear